Weather History for Fort Leonard Wood, MO

Change the Weather History Date:

Tuesday, March 19, 2013

  Actual Average Record
Temperature  
Mean Temperature 36 °F -  
Max Temperature 46 °F 53 °F 78 °F (2012)
Min Temperature 27 °F 37 °F 27 °F (2013)
Degree Days  
Heating Degree Days 28    
Moisture  
Dew Point 24 °F    
Average Humidity 65    
Maximum Humidity 99    
Minimum Humidity 29    
Precipitation  
Precipitation 0.00 in - - ()
Sea Level Pressure  
Sea Level Pressure 30.20 in    
Wind  
Wind Speed 4 mph (NW)    
Max Wind Speed 10 mph    
Max Gust Speed -    
Visibility 10 miles    
Events      
Averages and records for this station are not official NWS values.
T = Trace of Precipitation, MM = Missing Value Source: NWS Daily Summary

Daily Weather History Graph

Daily Weather History Graph

Search for Another Location

Airport:

Trip Planner

Search our weather history database for the weather conditions in past years. The results will help you decide how hot, cold, wet, or windy it might be!

Date:

Astronomy

Mar. 19, 2013 Rise Set
Actual Time 7:13 AM CDT 7:19 PM CDT
Civil Twilight 6:47 AM CDT 7:45 PM CDT
Nautical Twilight 6:16 AM CDT 8:16 PM CDT
Astronomical Twilight 5:45 AM CDT 8:47 PM CDT
Moon 12:09 PM CDT (3/19) 2:01 AM CDT (3/19)
Length of Visible Light 12h 58m
Length of Day
12h 06m
Waxing Crescent, 50% of the Moon is Illuminated
Mar 19
Waxing Crescent
Mar 19
First Quarter
Mar 27
Full
Apr 2
Last Quarter
Apr 10
New

Hourly Weather History & Observations

Time (CDT) Temp. Windchill Dew Point Humidity Pressure Visibility Wind Dir Wind Speed Gust Speed Precip Events Conditions
12:58 AM 34.9 °F 30.8 °F 25.2 °F 68% 30.08 in 10.0 mi North 4.6 mph - N/A   Clear
1:58 AM 33.3 °F 28.9 °F 22.5 °F 65% 30.08 in 10.0 mi North 4.6 mph - N/A   Clear
2:58 AM 32.4 °F 29.1 °F 20.8 °F 63% 30.11 in 10.0 mi NNW 3.5 mph - N/A   Clear
3:58 AM 28.8 °F - 20.5 °F 71% 30.10 in 10.0 mi Calm Calm - N/A   Clear
4:58 AM 28.4 °F 24.6 °F 19.9 °F 71% 30.10 in 10.0 mi NW 3.5 mph - N/A   Clear
5:58 AM 27.7 °F - 20.3 °F 74% 30.14 in 10.0 mi SSW 1.2 mph - N/A   Scattered Clouds
6:58 AM 28.6 °F - 18.5 °F 66% 30.13 in 10.0 mi NW 1.2 mph - N/A   Clear
7:58 AM 28.6 °F 24.8 °F 18.3 °F 65% 30.17 in 10.0 mi NW 3.5 mph - N/A   Mostly Cloudy
8:58 AM 32.7 °F - 19.2 °F 58% 30.20 in 10.0 mi WNW 2.3 mph - N/A   Overcast
9:58 AM 36.0 °F 30.3 °F 17.4 °F 47% 30.23 in 10.0 mi NW 6.9 mph - N/A   Overcast
10:58 AM 38.1 °F 32.3 °F 13.8 °F 37% 30.23 in 10.0 mi North 8.1 mph - N/A   Overcast
11:58 AM 41.0 °F 39.0 °F 12.6 °F 31% 30.23 in 10.0 mi Variable 3.5 mph - N/A   Overcast
12:58 PM 42.6 °F - 13.3 °F 30% 30.25 in 10.0 mi NNW 1.2 mph - N/A   Overcast
1:58 PM 45.7 °F 42.0 °F 14.5 °F 29% 30.22 in 10.0 mi NNW 6.9 mph - N/A   Overcast
2:58 PM 46.0 °F 43.1 °F 15.3 °F 29% 30.20 in 10.0 mi NNE 5.8 mph - N/A   Mostly Cloudy
3:58 PM 42.8 °F 38.6 °F 26.8 °F 53% 30.23 in 10.0 mi Variable 6.9 mph - N/A   Overcast
4:13 PM 42.8 °F 37.5 °F 28.4 °F 57% 30.21 in 10.0 mi NNW 9.2 mph - N/A   Overcast
4:38 PM 41.0 °F 35.8 °F 28.4 °F 61% 30.22 in 10.0 mi West 8.1 mph - N/A   Mostly Cloudy
4:53 PM 41.0 °F 37.1 °F 28.4 °F 61% 30.22 in 10.0 mi WNW 5.8 mph - N/A   Mostly Cloudy
4:58 PM 40.5 °F 35.8 °F 28.8 °F 63% 30.26 in 10.0 mi NW 6.9 mph - N/A   Mostly Cloudy
5:03 PM 41.0 °F 34.7 °F 30.2 °F 65% 30.22 in 10.0 mi NW 10.4 mph - N/A   Scattered Clouds
5:30 PM 39.2 °F 33.6 °F 32.0 °F 75% 30.22 in 10.0 mi NNW 8.1 mph - N/A   Light Drizzle
5:42 PM 37.4 °F 32.1 °F 32.0 °F 81% 30.23 in 10.0 mi NW 6.9 mph - N/A   Mostly Cloudy
5:58 PM 37.9 °F 34.4 °F 31.8 °F 79% 30.26 in 10.0 mi NNW 4.6 mph - 0.00 in   Overcast
6:58 PM 37.8 °F - 31.1 °F 77% 30.26 in 10.0 mi Calm Calm - N/A   Partly Cloudy
7:58 PM 36.7 °F - 31.6 °F 82% 30.26 in 10.0 mi WSW 2.3 mph - N/A   Scattered Clouds
8:58 PM 35.1 °F 31.0 °F 31.5 °F 87% 30.23 in 10.0 mi SSW 4.6 mph - N/A   Mostly Cloudy
9:58 PM 32.2 °F - 30.7 °F 94% 30.26 in 10.0 mi WNW 2.3 mph - N/A   Scattered Clouds
10:58 PM 31.5 °F - 30.9 °F 98% 30.26 in 10.0 mi Calm Calm - N/A   Clear
11:58 PM 30.6 °F 25.8 °F 30.4 °F 99% 30.25 in 10.0 mi SW 4.6 mph - N/A   Clear